Voltar ao catálogo

BREEZE-M R/B

AtivoMEO
NORAD 44458·ROCKET BODY·🇷🇺 Russia

Lançado Aug 5, 2019 de Baikonur Cosmodrome

Loading…

Próximas Passagens (próximas 24 horas)

TLE

AtualizadoSource: Space-Track

Época: Sep 14, 2026, 09:58 UTC

1 44458U 19048B   26257.41560881 -.00000184  00000-0  00000-0 0  9996
2 44458   7.1383  71.8289 0743724 132.5788 234.1997  0.90283589 23368

Acompanhe BREEZE-M R/B em tempo real com AllMySat

Download on the App Store